Theta_e
303 303 304 304 306 307 308 309 309 309 309 311 309 308 307 308 308 307 307 307 307 307 307 307 308 308 308 310 310 310 310 310 310 310 311 313 314 312 312 311 311 311 311 312 312 313 312
303 303 304 304 304 304 304 306 308 308 308 309 311 311 310 308 308 308 307 307 307 307 307 307 307 307 308 309 309 309 309 309 309 310 311 313 314 314 312 312 312 311 311 312 313 312 312
303 303 304 304 304 304 303 303 304 305 307 308 308 310 311 311 309 308 308 308 307 307 307 307 307 307 307 308 310 309 309 309 309 310 311 313 314 314 314 312 312 313 313 310 309 311 311
303 304 304 304 304 304 304 304 304 304 304 305 306 308 309 311 311 309 310 309 309 307 307 307 307 307 307 309 310 310 309 309 309 310 311 312 314 314 314 313 311 310 309 310 309 309 310
304 304 304 304 304 304 304 304 304 304 304 305 305 305 307 308 309 310 310 310 309 308 307 307 306 307 308 310 310 309 309 309 310 311 312 313 314 314 312 310 306 306 311 310 309 309 310
302 302 302 302 303 303 303 303 303 304 304 304 304 305 305 306 308 310 310 310 309 309 309 309 307 308 309 310 309 310 309 309 311 311 312 314 313 310 307 307 311 310 310 308 309 308 308
302 302 302 302 302 302 302 302 302 302 302 302 302 303 304 305 307 310 310 310 309 308 308 309 309 310 309 309 309 309 309 310 311 310 308 309 309 308 307 307 307 308 308 309 309 307 308
310 307 305 302 301 301 301 301 301 301 301 301 301 302 302 303 306 308 309 309 308 308 309 309 308 308 308 308 309 309 309 310 309 308 307 305 307 307 307 307 308 308 308 308 307 306 307
307 307 306 305 304 304 303 303 302 302 301 301 301 302 302 302 304 306 309 308 307 308 308 309 308 309 310 309 309 309 311 310 308 307 307 308 307 307 308 307 308 307 307 306 307 306 307
310 310 309 309 308 308 307 307 306 305 304 303 302 302 302 302 304 302 308 308 308 309 305 309 310 309 309 310 309 310 311 310 307 308 307 306 306 306 307 308 307 309 305 306 307 308 313
308 308 308 308 308 308 308 308 308 308 307 307 306 305 303 302 301 302 305 308 309 311 304 308 309 309 309 309 309 309 310 309 308 307 308 308 307 308 308 309 308 309 307 306 307 310 309
308 307 305 302 303 302 303 303 306 308 308 307 307 308 307 306 302 302 303 307 312 306 305 309 308 308 309 309 309 309 310 309 308 308 306 306 306 307 307 307 307 306 306 305 304 307 311
299 297 296 296 296 296 297 298 299 299 300 302 304 304 306 307 306 302 305 309 305 306 308 310 309 309 308 308 308 308 308 307 307 306 306 304 305 307 307 307 306 305 306 311 311 313 312
295 294 294 294 294 295 295 295 295 296 297 298 298 300 301 304 306 304 305 302 302 304 306 308 308 307 308 307 308 307 307 305 305 303 303 305 308 307 307 307 308 307 306 309 312 311 309
294 298 295 296 295 294 294 294 294 295 295 296 297 298 299 302 306 305 308 300 301 303 306 310 308 308 308 308 307 306 305 305 304 302 306 305 307 305 305 306 307 307 308 306 308 305 307
293 297 299 299 296 296 293 293 294 294 294 295 296 297 302 304 306 307 304 303 302 305 309 307 308 305 306 307 307 306 305 304 306 303 302 304 306 305 305 306 306 308 304 308 306 309 311
292 292 293 294 293 292 292 292 293 293 294 295 297 300 305 308 308 309 303 303 305 307 309 307 306 305 305 307 306 305 305 305 305 304 303 303 304 306 304 306 306 305 308 304 304 306 310
292 292 293 292 292 292 293 293 292 292 293 294 297 297 306 308 307 302 303 304 308 308 308 307 306 305 305 305 305 304 304 304 305 304 305 302 301 304 306 303 303 305 304 304 307 306 304
291 292 293 293 292 291 292 292 292 292 292 294 300 301 305 307 304 300 301 304 306 306 305 305 306 306 305 306 304 303 304 304 304 303 303 302 303 303 306 303 304 306 305 303 302 303 305
294 294 295 295 295 294 292 291 292 292 294 297 301 300 303 306 305 304 304 304 304 306 305 305 305 305 305 306 304 305 305 304 305 304 304 304 301 304 306 305 303 306 305 304 304 305 305
297 296 296 296 296 295 294 292 291 293 294 299 301 301 301 302 302 302 304 305 305 305 305 304 303 300 303 306 306 305 303 303 304 305 303 301 303 300 301 302 302 304 304 303 304 304 306
295 295 296 296 296 296 295 295 292 292 293 296 298 298 297 297 299 301 302 302 302 300 302 304 299 298 301 305 304 303 301 303 304 303 303 299 303 302 302 303 303 304 302 303 303 304 303
293 294 294 294 293 293 295 295 295 293 294 293 293 293 296 296 296 297 298 297 299 297 300 299 297 297 298 299 298 298 298 299 300 302 304 303 303 303 306 304 303 306 304 304 305 302 303
293 293 294 295 294 294 294 292 293 295 294 295 294 293 295 294 294 295 294 295 296 296 296 296 295 296 297 296 297 298 298 297 298 300 302 303 302 304 307 306 309 306 302 303 304 303 301
293 293 294 293 293 293 293 294 293 292 294 295 295 293 293 292 293 293 294 295 294 293 294 295 296 295 293 296 298 300 300 301 300 300 300 302 304 307 308 306 306 306 306 303 303 305 302
292 292 292 292 293 293 292 293 293 293 292 294 294 294 293 293 290 292 292 292 292 293 293 292 294 292 293 294 300 302 300 301 301 303 297 300 302 306 304 308 308 303 302 302 301 304 303
292 292 292 292 292 292 292 292 292 292 292 293 293 294 293 292 292 292 292 293 293 292 291 292 292 291 292 292 296 297 297 299 300 303 301 302 302 305 306 308 305 302 303 302 307 305 304
290 291 291 291 292 292 291 291 291 292 291 292 293 293 293 294 293 293 293 293 293 292 290 292 291 292 292 294 296 298 298 297 298 296 300 301 303 305 306 308 307 303 302 304 304 304 305
292 291 291 292 291 291 291 291 292 292 291 292 293 292 293 293 294 294 293 293 293 293 293 292 291 291 292 291 288 289 291 289 289 290 294 302 301 302 303 303 301 301 300 303 303 303 305
Wind_Speed
7 7 7 6 7 8 10 11 13 15 16 16 15 15 16 15 13 12 11 10 9 9 9 10 9 9 8 5 2 5 6 8 9 10 10 10 9 5 2 2 4 4 4 8 17 26 22
5 5 5 6 7 8 9 11 12 13 15 15 16 16 16 16 14 13 13 11 9 8 8 9 10 10 8 3 3 4 7 9 9 10 9 8 5 6 1 2 1 4 11 22 18 18 14
5 6 7 7 8 8 10 11 12 13 14 15 15 16 16 16 15 13 13 11 10 8 8 8 9 10 11 8 4 5 7 9 9 8 8 6 5 4 6 3 4 7 7 8 4 2 4
7 8 9 10 10 10 10 11 12 13 14 15 16 16 16 16 16 13 14 13 12 10 8 7 8 9 6 5 6 8 8 10 8 9 6 6 5 5 2 7 3 3 1 6 5 5 2
9 10 10 11 11 11 11 11 12 13 14 15 16 17 17 17 17 13 15 15 12 8 8 7 8 6 5 2 5 6 8 9 7 6 7 6 5 1 1 2 3 4 4 4 9 1 3
10 10 10 10 11 12 13 13 13 13 14 15 16 17 18 18 17 13 16 16 9 7 6 7 9 4 5 2 6 10 8 5 4 7 3 2 2 2 2 4 3 6 5 4 8 5 2
9 9 10 10 11 12 13 14 15 16 16 16 17 17 18 18 17 13 15 10 7 2 7 7 3 4 6 4 10 3 4 4 3 1 2 3 3 3 4 5 5 3 4 7 9 5 5
11 11 12 14 14 14 15 15 16 17 18 18 18 18 19 19 16 14 14 7 7 8 10 8 13 15 12 7 3 2 2 2 2 2 3 4 3 3 4 5 5 5 5 7 6 3 4
13 14 13 14 14 13 14 14 15 16 17 18 19 19 19 19 14 15 12 13 11 12 4 3 2 3 3 3 2 2 2 1 1 1 2 4 3 3 3 5 3 4 4 4 5 7 2
13 14 15 16 16 16 16 17 17 16 16 16 17 18 18 18 7 16 9 13 13 12 4 3 1 2 2 2 2 3 3 1 1 2 2 5 3 2 4 4 2 5 5 2 8 3 2
16 16 16 17 18 18 19 20 20 20 19 17 16 16 16 14 13 12 11 12 10 5 5 1 2 2 2 3 2 3 4 2 3 2 1 5 1 2 3 2 3 9 5 4 1 1 2
20 22 23 23 23 23 23 24 24 23 23 22 19 17 16 14 12 9 9 9 6 6 6 1 2 2 1 2 2 2 3 3 1 0 2 7 3 3 4 3 4 7 4 2 2 1 2
22 22 21 20 20 21 22 23 25 24 24 24 22 19 16 14 12 10 6 5 5 4 2 2 3 1 0 3 2 4 2 2 3 3 3 4 3 2 3 4 0 6 6 4 5 4 3
16 17 18 17 18 19 21 23 23 22 22 24 21 17 17 13 12 9 2 4 3 7 6 0 2 1 4 4 3 2 0 3 3 3 2 2 7 4 2 2 1 4 2 3 3 3 5
15 19 18 16 18 20 22 22 22 23 21 21 20 16 12 11 8 7 5 3 8 8 4 4 2 3 3 3 3 1 5 4 6 9 6 4 5 2 1 0 2 1 2 2 1 0 1
13 14 17 18 21 23 23 23 23 23 20 19 17 12 6 7 9 8 3 7 6 4 0 2 7 7 6 5 4 4 4 3 3 6 1 3 3 1 1 2 3 0 5 1 2 3 5
17 15 16 18 21 24 25 25 25 24 21 15 12 4 4 2 7 6 3 6 5 6 4 4 4 4 6 3 5 4 4 2 3 4 2 4 2 4 0 4 6 1 0 3 3 2 2
17 16 17 19 21 23 25 27 26 25 23 16 4 2 7 1 2 1 2 4 8 5 3 4 2 5 5 2 3 4 6 5 3 8 6 4 4 3 8 0 1 1 4 4 3 3 2
15 16 18 19 22 24 25 27 27 25 22 19 5 5 7 1 1 2 7 5 4 5 5 5 3 1 2 3 3 5 3 3 4 5 5 5 1 2 6 3 2 3 4 3 3 2 5
14 15 16 18 20 23 25 25 26 25 19 12 5 3 5 5 4 2 4 4 5 11 2 5 4 5 4 2 3 3 2 4 2 2 1 6 4 6 6 5 3 4 4 5 4 3 4
13 15 16 17 18 20 23 26 25 23 16 8 6 3 4 3 4 7 4 2 4 5 8 15 4 10 5 4 4 1 5 6 4 3 2 3 5 5 6 7 3 4 6 9 9 9 8
12 13 14 15 16 18 19 22 24 25 19 9 5 7 8 8 9 4 2 4 4 6 4 4 5 10 4 4 2 4 6 2 5 4 1 2 3 1 4 7 8 9 10 17 13 17 13
13 14 15 16 17 17 17 19 21 21 21 10 12 8 2 5 7 3 3 5 5 8 1 6 10 10 9 7 13 19 21 23 20 11 4 2 1 2 6 3 6 9 17 18 12 6 6
13 13 14 15 16 17 17 16 15 16 16 14 11 9 4 3 3 2 8 9 5 5 6 16 18 4 7 26 28 24 28 31 30 24 24 7 5 4 5 1 14 8 5 3 10 8 14
13 13 15 17 16 17 17 17 16 14 14 14 11 7 2 3 4 12 2 2 10 15 4 8 3 9 23 16 4 6 3 3 8 16 16 20 11 6 5 6 14 14 17 7 7 7 9
14 16 16 18 17 18 17 18 17 16 14 17 14 11 7 2 4 9 2 12 3 2 4 6 14 15 15 3 3 3 4 3 4 1 5 6 8 9 3 4 6 5 4 3 6 4 14
13 14 15 16 16 16 17 18 19 18 17 17 17 17 11 7 17 16 8 4 4 3 2 8 7 14 6 2 3 3 4 4 4 4 4 5 3 15 13 10 8 6 6 7 0 6 5
17 16 16 16 17 18 18 18 20 20 18 18 20 19 18 16 24 26 20 16 13 7 3 6 8 1 2 2 3 2 2 3 4 5 3 6 6 5 6 8 12 7 5 7 4 1 6
18 19 19 18 20 19 20 21 20 18 20 19 23 22 21 20 19 21 16 19 23 24 21 8 9 5 4 1 1 2 4 4 3 4 6 4 2 4 4 4 5 12 20 21 19 16 16
Wind_Direction
74 66 58 48 36 27 21 20 18 18 17 18 16 8 6 2 356 352 346 333 316 300 282 275 289 318 337 321 277 323 338 344 347 353 357 6 20 17 1 313 305 209 274 274 266 283 282
64 53 44 36 22 20 16 14 15 14 13 13 13 8 4 2 357 353 350 344 331 309 288 273 278 298 318 288 266 305 325 331 335 344 351 353 359 342 292 268 232 291 282 285 293 287 275
40 34 26 21 18 19 17 14 12 10 8 8 6 3 1 359 356 351 346 339 331 313 290 276 278 291 295 270 254 303 312 320 322 329 335 328 324 341 323 278 292 298 315 307 247 239 273
28 22 18 14 12 14 15 13 10 6 3 2 360 359 357 354 353 347 346 335 324 307 291 276 279 294 270 264 250 295 306 313 314 323 317 318 306 305 243 297 319 338 43 340 287 317 301
32 29 25 18 10 7 4 5 4 1 359 356 356 355 353 351 349 344 345 336 322 300 282 274 278 279 274 255 265 287 303 302 306 324 318 307 304 315 356 9 359 12 287 287 313 257 268
33 27 21 14 6 0 356 353 355 354 353 352 351 351 350 350 349 346 345 339 328 307 277 275 258 275 236 238 294 299 300 296 304 309 302 323 350 28 41 59 299 289 312 275 265 286 246
19 11 3 357 354 351 349 347 346 346 346 347 347 348 345 347 349 352 353 346 341 308 294 248 244 265 285 281 302 281 302 312 327 349 358 9 28 272 260 202 228 258 236 255 276 272 288
23 12 359 351 351 351 347 343 342 340 340 342 342 344 345 344 345 355 358 21 7 316 305 274 250 253 267 280 268 268 280 310 34 291 333 360 243 209 268 250 226 218 264 274 283 252 310
359 358 352 350 349 345 342 338 335 336 336 336 337 338 343 345 343 352 358 5 351 342 287 295 233 230 223 215 243 214 235 300 150 256 200 217 250 312 240 300 305 243 212 254 268 316 239
358 355 350 345 341 338 334 330 328 329 330 330 329 330 335 344 342 345 348 347 344 341 38 272 222 198 194 217 254 206 212 220 206 260 274 227 292 294 298 267 115 301 204 259 294 350 312
337 333 329 325 321 319 317 315 317 319 320 319 322 323 326 333 329 330 336 334 335 344 11 239 180 186 197 217 283 221 202 187 209 215 88 264 257 348 290 245 165 251 326 273 179 211 26
322 321 320 318 315 312 311 310 309 310 310 310 312 314 315 315 317 316 326 327 334 43 261 327 166 206 310 206 232 185 206 208 219 211 230 255 279 221 235 285 205 293 329 101 78 116 34
319 322 323 324 321 319 313 311 310 311 310 307 306 303 301 304 297 299 310 316 34 136 314 247 244 169 204 231 246 177 199 216 198 26 327 315 243 251 232 315 195 7 32 352 358 2 261
343 339 340 338 337 330 323 320 317 315 310 306 308 302 294 281 279 275 262 46 142 241 233 104 145 138 227 164 237 208 251 283 220 112 117 125 324 181 188 226 284 33 99 130 307 321 295
9 6 1 360 347 339 337 335 329 322 317 312 313 310 294 276 245 208 169 95 208 211 208 183 149 198 245 183 196 225 215 226 216 179 177 155 273 246 172 59 116 137 46 167 154 177 348
13 20 12 6 1 358 354 346 340 337 330 322 321 318 289 266 228 187 102 226 231 226 282 130 193 182 225 206 183 176 200 197 238 192 183 197 291 201 127 125 44 115 157 51 30 347 301
12 12 7 1 1 2 4 1 353 346 345 335 326 326 16 151 159 170 196 238 293 293 247 191 233 248 224 230 201 221 235 257 161 154 122 137 133 283 326 196 182 95 220 60 122 143 229
13 13 5 2 3 5 5 7 4 356 354 352 3 47 15 132 117 48 224 318 326 311 332 290 253 208 211 185 240 245 230 245 172 154 167 200 153 238 242 78 0 155 195 152 129 231 210
10 11 7 8 8 5 5 5 7 1 358 360 18 323 18 21 55 342 317 308 287 329 340 348 314 303 352 221 291 210 226 357 200 167 169 186 215 349 331 4 23 206 193 137 94 91 198
358 1 4 6 7 7 5 4 8 6 4 7 12 358 14 44 59 47 351 302 311 331 295 344 334 8 352 301 232 285 288 17 322 207 204 165 186 197 209 226 139 198 194 193 170 164 193
345 347 351 354 358 1 1 1 3 12 14 13 8 26 35 350 349 339 325 293 312 330 348 19 87 28 356 298 314 254 8 338 329 348 130 157 223 202 254 258 248 234 230 237 205 228 220
319 323 332 339 344 347 354 358 0 6 18 40 23 358 357 311 314 308 296 17 24 344 332 10 39 347 339 294 344 305 7 297 259 334 87 28 261 151 270 267 257 255 234 247 237 241 247
339 341 342 340 332 334 339 347 353 1 13 31 26 4 324 330 343 353 11 3 1 7 204 65 346 317 304 306 313 291 274 259 253 269 280 250 208 35 267 246 309 270 225 226 230 193 190
337 329 329 331 334 337 336 332 336 346 350 0 6 6 7 310 338 323 338 328 340 5 286 302 310 294 319 320 306 288 264 246 238 231 220 216 173 189 276 291 268 259 226 258 226 230 211
318 324 325 322 323 327 331 332 332 324 325 323 327 334 299 270 279 300 334 3 320 318 287 285 316 328 320 311 300 304 296 272 241 238 231 220 206 233 236 224 281 290 276 188 161 270 220
314 316 317 315 317 318 319 317 319 320 316 309 308 296 262 251 243 233 301 295 259 282 315 285 297 319 335 294 259 249 249 297 298 264 0 178 221 206 158 223 251 254 317 126 116 295 267
322 323 323 321 322 323 321 318 315 308 305 305 298 293 239 232 265 254 212 212 245 231 241 291 320 317 306 241 251 251 251 242 263 254 182 137 177 218 223 243 267 237 172 150 105 254 342
335 330 325 324 322 320 322 317 320 308 302 298 295 295 279 262 254 259 253 237 260 232 195 284 335 330 286 246 254 279 280 359 295 329 226 186 192 197 208 229 256 203 100 198 207 22 357
320 318 320 315 312 312 313 314 315 310 299 296 291 292 287 266 266 277 270 257 248 260 272 238 226 250 258 276 338 335 305 303 310 279 322 277 219 320 237 235 350 6 327 313 309 305 305